When you browse on this site, cookies collect data to enhance your experience and personalize the content and advertising you see.
Visit our Privacy Policy to learn more. By continuing to use the site, you agree to this use of cookies and data.
  • en Suisse
  • Liste des pays
  • À 7 jours
  • Température de l'eau
  • Carte satellitaire
  • Carte météo
  • Widgets météo
  • user-avatar
    Se connecter

    Météo par heure à Platonivka

    Ce jour, 22 Avril, Lundi

    Heure Température Précipitation Vent Pression Humidité
    00:00 +8°C° 0 mm 2 m/s 760 mmHg 51%
    01:00 +7°C° 0 mm 2 m/s 760 mmHg 53%
    02:00 +7°C° 0 mm 2 m/s 760 mmHg 54%
    03:00 +7°C° 0 mm 2 m/s 760 mmHg 56%
    04:00 +6°C° 0 mm 2 m/s 761 mmHg 57%
    05:00 +6°C° 0 mm 2 m/s 761 mmHg 58%
    06:00 +6°C° 0 mm 2 m/s 761 mmHg 60%
    07:00 +8°C° 0 mm 2 m/s 761 mmHg 54%
    08:00 +10°C° 0 mm 3 m/s 761 mmHg 49%
    09:00 +12°C° 0 mm 4 m/s 761 mmHg 44%
    10:00 +13°C° 0 mm 4 m/s 761 mmHg 40%
    11:00 +14°C° 0 mm 5 m/s 761 mmHg 35%
    12:00 +15°C° 0 mm 5 m/s 761 mmHg 31%
    13:00 +16°C° 0 mm 5 m/s 761 mmHg 32%
    14:00 +16°C° 0 mm 5 m/s 761 mmHg 32%
    15:00 +17°C° 0 mm 4 m/s 761 mmHg 33%
    16:00 +17°C° 0 mm 4 m/s 761 mmHg 36%
    17:00 +16°C° 0 mm 3 m/s 761 mmHg 39%
    18:00 +16°C° 0 mm 2 m/s 761 mmHg 42%
    19:00 +15°C° 0 mm 2 m/s 761 mmHg 44%
    20:00 +14°C° 0 mm 2 m/s 761 mmHg 47%
    21:00 +13°C° 0 mm 1 m/s 761 mmHg 49%
    22:00 +12°C° 0 mm 1 m/s 762 mmHg 50%
    23:00 +12°C° 0 mm 1 m/s 762 mmHg 50%

    Demain, 23 Avril, Mardi

    Heure Température Précipitation Vent Pression Humidité
    00:00 +11°C° 0 mm 0 m/s 762 mmHg 51%
    01:00 +11°C° 0 mm 0 m/s 762 mmHg 52%
    02:00 +11°C° 0 mm 0 m/s 762 mmHg 53%
    03:00 +11°C° 0 mm 1 m/s 763 mmHg 54%
    04:00 +10°C° 0 mm 0 m/s 763 mmHg 55%
    05:00 +10°C° 0 mm 0 m/s 763 mmHg 57%
    06:00 +10°C° 0 mm 0 m/s 763 mmHg 59%
    07:00 +11°C° 0 mm 0 m/s 763 mmHg 55%
    08:00 +13°C° 0 mm 1 m/s 764 mmHg 51%
    09:00 +15°C° 0 mm 1 m/s 764 mmHg 48%
    10:00 +15°C° 0 mm 1 m/s 764 mmHg 43%
    11:00 +16°C° 0 mm 2 m/s 764 mmHg 39%
    12:00 +17°C° 0 mm 2 m/s 764 mmHg 34%
    13:00 +17°C° 0 mm 2 m/s 764 mmHg 34%
    14:00 +17°C° 0 mm 2 m/s 764 mmHg 34%
    15:00 +18°C° 0 mm 1 m/s 764 mmHg 34%
    16:00 +18°C° 0 mm 1 m/s 763 mmHg 35%
    17:00 +18°C° 0 mm 1 m/s 763 mmHg 37%
    18:00 +18°C° 0 mm 1 m/s 763 mmHg 38%
    19:00 +16°C° 0 mm 1 m/s 763 mmHg 42%
    20:00 +14°C° 0 mm 1 m/s 764 mmHg 45%
    21:00 +13°C° 0 mm 1 m/s 764 mmHg 48%
    22:00 +12°C° 0 mm 1 m/s 764 mmHg 50%
    23:00 +12°C° 0 mm 1 m/s 764 mmHg 52%

    Après-demain, 24 Avril, Mercredi

    Heure Température Précipitation Vent Pression Humidité
    00:00 +11°C° 0 mm 1 m/s 764 mmHg 53%
    01:00 +10°C° 0 mm 2 m/s 764 mmHg 56%
    02:00 +10°C° 0 mm 2 m/s 764 mmHg 58%
    03:00 +9°C° 0 mm 2 m/s 764 mmHg 60%
    04:00 +9°C° 0 mm 2 m/s 764 mmHg 62%
    05:00 +9°C° 0 mm 2 m/s 764 mmHg 64%
    06:00 +9°C° 0 mm 2 m/s 764 mmHg 66%
    07:00 +12°C° 0 mm 2 m/s 764 mmHg 60%
    08:00 +13°C° 0 mm 3 m/s 764 mmHg 54%
    09:00 +16°C° 0 mm 3 m/s 764 mmHg 48%
    10:00 +17°C° 0 mm 3 m/s 764 mmHg 44%
    11:00 +18°C° 0 mm 4 m/s 764 mmHg 40%
    12:00 +20°C° 0 mm 4 m/s 763 mmHg 36%
    13:00 +20°C° 0 mm 4 m/s 763 mmHg 37%
    14:00 +20°C° 0 mm 4 m/s 763 mmHg 37%
    15:00 +20°C° 0 mm 4 m/s 763 mmHg 38%
    16:00 +20°C° 0 mm 3 m/s 763 mmHg 41%
    17:00 +20°C° 0 mm 3 m/s 763 mmHg 45%
    18:00 +19°C° 0 mm 2 m/s 762 mmHg 48%
    19:00 +18°C° 0 mm 2 m/s 763 mmHg 51%
    20:00 +17°C° 0 mm 2 m/s 763 mmHg 55%
    21:00 +16°C° 0 mm 2 m/s 763 mmHg 58%
    22:00 +15°C° 0 mm 2 m/s 763 mmHg 61%
    23:00 +14°C° 0 mm 2 m/s 763 mmHg 63%

    25 Avril, Jeudi

    Heure Température Précipitation Vent Pression Humidité
    00:00 +14°C° 0 mm 2 m/s 763 mmHg 65%
    01:00 +13°C° 0 mm 2 m/s 763 mmHg 66%
    02:00 +13°C° 0 mm 2 m/s 763 mmHg 68%
    03:00 +13°C° 0 mm 2 m/s 763 mmHg 69%
    04:00 +12°C° 0 mm 2 m/s 763 mmHg 71%
    05:00 +12°C° 0 mm 2 m/s 763 mmHg 72%
    06:00 +12°C° 0 mm 2 m/s 763 mmHg 73%
    07:00 +14°C° 0 mm 2 m/s 763 mmHg 67%
    08:00 +16°C° 0 mm 2 m/s 763 mmHg 61%
    09:00 +18°C° 0 mm 2 m/s 763 mmHg 55%
    10:00 +20°C° 0 mm 3 m/s 763 mmHg 50%
    11:00 +21°C° 0 mm 3 m/s 763 mmHg 45%
    12:00 +22°C° 0 mm 3 m/s 763 mmHg 40%
    13:00 +24°C° 0 mm 3 m/s 763 mmHg 39%
    14:00 +24°C° 0 mm 3 m/s 763 mmHg 37%
    15:00 +25°C° 0 mm 3 m/s 762 mmHg 35%
    16:00 +25°C° 0 mm 2 m/s 762 mmHg 38%
    17:00 +24°C° 0 mm 2 m/s 762 mmHg 40%
    18:00 +24°C° 0 mm 2 m/s 762 mmHg 42%
    19:00 +21°C° 0 mm 2 m/s 762 mmHg 46%
    20:00 +21°C° 0 mm 1 m/s 762 mmHg 50%
    21:00 +19°C° 0 mm 1 m/s 762 mmHg 54%
    22:00 +18°C° 0 mm 1 m/s 762 mmHg 56%
    23:00 +18°C° 0 mm 1 m/s 762 mmHg 59%

    26 Avril, Vendredi

    Heure Température Précipitation Vent Pression Humidité
    00:00 +16°C° 0 mm 1 m/s 761 mmHg 61%
    01:00 +16°C° 0 mm 1 m/s 761 mmHg 63%
    02:00 +15°C° 0 mm 1 m/s 761 mmHg 66%
    03:00 +15°C° 0 mm 1 m/s 761 mmHg 68%
    04:00 +15°C° 0 mm 1 m/s 761 mmHg 69%
    05:00 +15°C° 0 mm 1 m/s 761 mmHg 71%
    06:00 +14°C° 0 mm 1 m/s 761 mmHg 72%
    07:00 +16°C° 0 mm 1 m/s 761 mmHg 66%
    08:00 +19°C° 0 mm 1 m/s 761 mmHg 59%
    09:00 +20°C° 0 mm 2 m/s 761 mmHg 53%
    10:00 +21°C° 0 mm 2 m/s 761 mmHg 48%
    11:00 +23°C° 0 mm 2 m/s 761 mmHg 43%
    12:00 +25°C° 0 mm 2 m/s 760 mmHg 37%
    13:00 +25°C° 0 mm 2 m/s 760 mmHg 36%
    14:00 +25°C° 0 mm 2 m/s 760 mmHg 34%
    15:00 +25°C° 0 mm 2 m/s 759 mmHg 32%
    16:00 +25°C° 0 mm 2 m/s 759 mmHg 37%
    17:00 +24°C° 0 mm 2 m/s 759 mmHg 41%
    18:00 +23°C° 0 mm 2 m/s 759 mmHg 45%
    19:00 +21°C° 0 mm 2 m/s 759 mmHg 47%
    20:00 +20°C° 0 mm 2 m/s 759 mmHg 49%
    21:00 +19°C° 0 mm 2 m/s 758 mmHg 52%
    22:00 +20°C° 0 mm 1 m/s 758 mmHg 54%
    23:00 +19°C° 0 mm 1 m/s 758 mmHg 57%

    27 Avril, Samedi

    Heure Température Précipitation Vent Pression Humidité
    00:00 +18°C° 0 mm 1 m/s 758 mmHg 60%
    01:00 +18°C° 0 mm 1 m/s 758 mmHg 61%
    02:00 +18°C° 0 mm 1 m/s 758 mmHg 62%
    03:00 +16°C° 0 mm 1 m/s 758 mmHg 63%
    04:00 +16°C° 0 mm 1 m/s 757 mmHg 63%
    05:00 +16°C° 0 mm 1 m/s 757 mmHg 64%
    06:00 +16°C° 0 mm 1 m/s 757 mmHg 65%
    07:00 +19°C° 0 mm 1 m/s 758 mmHg 60%
    08:00 +20°C° 0 mm 1 m/s 758 mmHg 55%
    09:00 +21°C° 0 mm 1 m/s 758 mmHg 51%
    10:00 +22°C° 0 mm 1 m/s 758 mmHg 47%
    11:00 +23°C° 0 mm 1 m/s 758 mmHg 43%
    12:00 +24°C° 0 mm 1 m/s 758 mmHg 39%
    13:00 +24°C° 0 mm 1 m/s 757 mmHg 38%
    14:00 +24°C° 0 mm 1 m/s 757 mmHg 37%
    15:00 +24°C° 0 mm 1 m/s 757 mmHg 36%
    16:00 +24°C° 0 mm 1 m/s 757 mmHg 39%
    17:00 +23°C° 0 mm 1 m/s 757 mmHg 42%
    18:00 +23°C° 0 mm 1 m/s 757 mmHg 45%
    19:00 +21°C° 0 mm 1 m/s 757 mmHg 48%
    20:00 +20°C° 0 mm 1 m/s 757 mmHg 51%
    21:00 +18°C° 0 mm 1 m/s 757 mmHg 54%
    22:00 +18°C° 0 mm 1 m/s 757 mmHg 55%
    23:00 +15°C° 0 mm 0 m/s 757 mmHg 56%
    Voir plus